Location: Wangen+im+Allg�u
(47.7098°N, 9.8383°E)
Time: 11:35:57
(UTC+01:00)

ISS - Pass Details

Date: 11 February 2018
Orbit: 403 x 407 km, 51.6° (Epoch: 22 February)

Event Time Altitude Azimuth Distance (km) Brightness Sun altitude
Rises 19:24:20 0° 286° (WNW) 2,321 1.4 -18.5°
Reaches altitude 10° 19:26:52 10° 266° (W) 1,458 0.2 -18.9°
Maximum altitude 19:29:07 17° 222° (SW) 1,093 -1.2 -19.3°
Drops below altitude 10° 19:31:21 10° 179° (S) 1,452 -1.1 -19.7°
Enters shadow 19:31:24 10° 178° (S) 1,464 -1.0 -19.7°
